Location: Eastlake (historical)
(39.0077°N, 122.6678°W)
Time: 17:38:56
(UTC+00:00)

Cosmos 2263 Rocket - Pass Details

Date: 25 November 2020
Orbit: 823 x 849 km, 71.0° (Epoch: 23 January)

Event Time Altitude Azimuth Distance (km) Brightness Sun altitude
Exits shadow 14:11:03 - 251° (WSW) 2,778 4.4 -10.5°
Reaches altitude 10° 14:12:11 10° 259° (WSW) 2,457 4.1 -10.3°
Maximum altitude 14:16:20 21° 306° (NW) 1,828 3.4 -9.6°
Drops below altitude 10° 14:20:32 10° 354° (N) 2,476 4.4 -8.8°
Sets 14:23:39 0° 11° (N) 3,418 5.3 -8.2°
